Weather History for KMVL - January, 2013

Change the Weather History Date:

Wednesday, January 23, 2013

  Actual Average Record
Temperature  
Mean Temperature -8 °F 15 °F  
Max Temperature -1 °F 26 °F 46 °F (1997)
Min Temperature -15 °F 4 °F -20 °F (2000)
Degree Days  
Heating Degree Days 73 50  
Month to date heating degree days 1068 1128  
Since 1 July heating degree days 3912 4266  
Cooling Degree Days 0 0  
Month to date cooling degree days 0 0  
Year to date cooling degree days 0 0  
Moisture  
Dew Point -18 °F    
Average Humidity 56    
Maximum Humidity 74    
Minimum Humidity 38    
Precipitation  
Precipitation 0.00 in 0.08 in 0.86 in (1998)
Month to date precipitation 0.49 1.95  
Year to date precipitation 0.49 1.95  
Sea Level Pressure  
Sea Level Pressure 30.15 in    
Wind  
Wind Speed 7 mph (NNW)    
Max Wind Speed 18 mph    
Max Gust Speed 28 mph    
Visibility 10 miles    
Events      
T = Trace of Precipitation, MM = Missing Value Source: NWS Daily Summary

Daily Weather History Graph

Daily Weather History Graph

Search for Another Location

Airport or City:

Trip Planner

Search our weather history database for the weather conditions in past years. The results will help you decide how hot, cold, wet, or windy it might be!

Date:

Astronomy

Jan. 23, 2013 Rise Set
Actual Time 7:17 AM EST 4:47 PM EST
Civil Twilight 6:46 AM EST 5:19 PM EST
Nautical Twilight 6:10 AM EST 5:54 PM EST
Astronomical Twilight 5:36 AM EST 6:29 PM EST
Moon 1:53 PM EST (1/23) 4:29 AM EST (1/23)
Length of Visible Light 10h 33m
Length of Day
9h 29m
Waxing Gibbous, 89% of the Moon is Illuminated
Jan 23
Waxing Gibbous
Jan 26
Full
Feb 3
Last Quarter
Feb 10
New
Feb 17
First Quarter

Hourly Weather History & Observations

Time (EST) Temp. Windchill Dew Point Humidity Pressure Visibility Wind Dir Wind Speed Gust Speed Precip Events Conditions
12:07 AM -2.2 °F -14.2 °F -9.4 °F 71% 30.03 in 9.0 mi NW 5.8 mph - N/A   Overcast
12:54 AM -2.0 °F -15.4 °F -11.9 °F 63% 30.10 in 10.0 mi NNW 6.9 mph - N/A   Overcast
1:05 AM -2.2 °F -16.8 °F -13.0 °F 60% 30.04 in 10.0 mi NNW 8.1 mph - N/A   Overcast
1:54 AM -2.9 °F -19.8 °F -14.1 °F 59% 30.11 in 10.0 mi NW 10.4 mph 19.6 mph N/A   Overcast
2:54 AM -5.1 °F -21.5 °F -15.0 °F 62% 30.12 in 7.0 mi NW 9.2 mph - N/A   Overcast
3:54 AM -6.0 °F -23.6 °F -15.0 °F 65% 30.12 in 6.0 mi NW 10.4 mph - N/A   Haze
4:54 AM -7.1 °F -25.9 °F -16.1 °F 65% 30.13 in 6.0 mi NW 11.5 mph - N/A   Haze
5:45 AM -7.6 °F -28.3 °F -20.2 °F 54% 30.08 in 9.0 mi WNW 13.8 mph - N/A   Mostly Cloudy
5:54 AM -9.0 °F -30.9 °F -20.0 °F 59% 30.15 in 9.0 mi NW 15.0 mph 20.7 mph N/A   Mostly Cloudy
6:01 AM -9.4 °F -29.8 °F -20.2 °F 59% 30.09 in 10.0 mi WNW 12.7 mph 21.9 mph N/A   Scattered Clouds
6:54 AM -9.0 °F -28.4 °F -20.9 °F 56% 30.17 in 10.0 mi NW 11.5 mph - N/A   Mostly Cloudy
7:45 AM -9.4 °F -24.3 °F -20.2 °F 59% 30.11 in 10.0 mi North 6.9 mph - N/A   Scattered Clouds
7:54 AM -9.9 °F -23.4 °F -18.9 °F 65% 30.19 in 10.0 mi North 5.8 mph - N/A   Mostly Cloudy
8:54 AM -9.0 °F -25.2 °F -20.9 °F 56% 30.21 in 10.0 mi WNW 8.1 mph - N/A   Mostly Cloudy
9:35 AM -9.4 °F -22.7 °F -18.4 °F 65% 30.14 in 10.0 mi NE 5.8 mph - N/A   Mostly Cloudy
9:54 AM -8.0 °F - -18.9 °F 59% 30.21 in 10.0 mi Calm Calm - N/A   Scattered Clouds
10:54 AM -8.0 °F -27.1 °F -20.0 °F 56% 30.21 in 10.0 mi NNE 11.5 mph - N/A   Clear
11:54 AM -5.1 °F -21.5 °F -18.9 °F 51% 30.19 in 10.0 mi NNE 9.2 mph - N/A   Clear
12:54 PM -2.9 °F -19.8 °F -20.0 °F 44% 30.17 in 10.0 mi NNW 10.4 mph - N/A   Clear
1:54 PM -0.9 °F -15.3 °F -20.9 °F 38% 30.16 in 10.0 mi NW 8.1 mph - N/A   Clear
2:54 PM -0.9 °F -16.4 °F -20.0 °F 40% 30.16 in 10.0 mi NNW 9.2 mph - N/A   Clear
3:54 PM -4.0 °F -19.0 °F -18.0 °F 51% 30.17 in 10.0 mi NNE 8.1 mph - N/A   Clear
4:54 PM -5.1 °F -15.8 °F -18.0 °F 54% 30.17 in 10.0 mi Variable 4.6 mph - N/A   Clear
5:54 PM -6.0 °F -14.7 °F -18.9 °F 54% 30.19 in 10.0 mi NNE 3.5 mph - N/A   Clear
6:54 PM -8.0 °F -21.0 °F -18.9 °F 59% 30.20 in 10.0 mi NNW 5.8 mph - N/A   Clear
7:54 PM -9.0 °F -22.3 °F -18.9 °F 62% 30.20 in 10.0 mi NNW 5.8 mph - N/A   Clear
8:54 PM -9.9 °F - -20.0 °F 61% 30.19 in 10.0 mi Calm Calm - N/A   Clear
9:54 PM -11.0 °F - -20.0 °F 64% 30.19 in 10.0 mi Calm Calm - N/A   Clear
10:54 PM -14.1 °F - -20.0 °F 75% 30.21 in 10.0 mi Calm Calm - N/A   Clear
11:54 PM -14.1 °F - -20.9 °F 71% 30.19 in 10.0 mi Calm Calm - N/A   Clear